Weather History for KPVW - June, 2013

Change the Weather History Date:

Saturday, June 29, 2013

  Actual Average Record
Temperature  
Mean Temperature 80 °F -  
Max Temperature 94 °F 92 °F 109 °F (1980)
Min Temperature 67 °F 66 °F 55 °F (2007)
Cooling Degree Days 16    
Growing Degree Days 30 (Base 50)    
Moisture  
Dew Point 58 °F    
Average Humidity 50    
Maximum Humidity 87    
Minimum Humidity 29    
Precipitation  
Precipitation 0.00 in - - ()
Sea Level Pressure  
Sea Level Pressure 30.05 in    
Wind  
Wind Speed 8 mph (SE)    
Max Wind Speed 28 mph    
Max Gust Speed 45 mph    
Visibility 10 miles    
Events Rain , Thunderstorm    
Averages and records for this station are not official NWS values.
T = Trace of Precipitation, MM = Missing Value Source: NWS Daily Summary

Daily Weather History Graph

Daily Weather History Graph

Search for Another Location

Airport or City:

Trip Planner

Search our weather history database for the weather conditions in past years. The results will help you decide how hot, cold, wet, or windy it might be!

Date:

Astronomy

Jun. 29, 2013 Rise Set
Actual Time 6:38 AM CDT 9:02 PM CDT
Civil Twilight 6:08 AM CDT 9:31 PM CDT
Nautical Twilight 5:32 AM CDT 10:07 PM CDT
Astronomical Twilight 4:53 AM CDT 10:47 PM CDT
Moon 12:51 AM CDT (6/29) 1:31 PM CDT (6/29)
Length of Visible Light 15h 22m
Length of Day
14h 24m
Waning Gibbous, 55% of the Moon is Illuminated
Jun 29
Waning Gibbous
Jun 29
Last Quarter
Jul 8
New
Jul 15
First Quarter
Jul 22
Full

Hourly Weather History & Observations

Time (CDT) Temp. Heat Index Dew Point Humidity Pressure Visibility Wind Dir Wind Speed Gust Speed Precip Events Conditions
12:15 AM 80.1 °F 80.2 °F 55.4 °F 43% 30.07 in 10.0 mi ESE 8.1 mph - N/A   Clear
12:35 AM 77.9 °F - 53.6 °F 43% 30.07 in 10.0 mi ESE 6.9 mph - N/A   Clear
12:55 AM 77.5 °F - 53.6 °F 43% 30.06 in 10.0 mi ESE 5.8 mph - N/A   Clear
1:15 AM 77.5 °F - 54.1 °F 44% 30.06 in 10.0 mi ESE 5.8 mph - N/A   Clear
1:35 AM 75.6 °F - 53.8 °F 47% 30.06 in 10.0 mi ESE 4.6 mph - N/A   Clear
1:55 AM 75.2 °F - 55.2 °F 50% 30.06 in 10.0 mi SE 4.6 mph - N/A   Clear
2:15 AM 74.8 °F - 56.7 °F 53% 30.06 in 10.0 mi SSE 5.8 mph - N/A   Clear
2:35 AM 72.5 °F - 54.9 °F 54% 30.06 in 10.0 mi SSE 5.8 mph - N/A   Clear
2:55 AM 70.0 °F - 54.5 °F 58% 30.06 in 10.0 mi South 3.5 mph - N/A   Clear
3:15 AM 70.0 °F - 54.9 °F 59% 30.06 in 10.0 mi Calm Calm - N/A   Clear
3:35 AM 70.0 °F - 54.9 °F 59% 30.06 in 10.0 mi SE 3.5 mph - N/A   Clear
3:55 AM 73.4 °F - 56.7 °F 56% 30.06 in 10.0 mi SE 6.9 mph - N/A   Clear
4:15 AM 75.2 °F - 57.6 °F 54% 30.06 in 10.0 mi SE 5.8 mph - N/A   Clear
4:35 AM 70.7 °F - 55.8 °F 59% 30.07 in 10.0 mi SSE 3.5 mph - N/A   Clear
4:55 AM 70.0 °F - 55.4 °F 60% 30.07 in 10.0 mi Calm Calm - N/A   Clear
5:15 AM 70.0 °F - 55.4 °F 60% 30.07 in 10.0 mi Calm Calm - N/A   Clear
5:35 AM 70.0 °F - 55.6 °F 60% 30.08 in 10.0 mi Calm Calm - N/A   Clear
5:55 AM 70.0 °F - 56.1 °F 61% 30.08 in 10.0 mi Calm Calm - N/A   Clear
6:15 AM 70.0 °F - 56.1 °F 61% 30.08 in 10.0 mi Calm Calm - N/A   Clear
6:35 AM 70.0 °F - 57.6 °F 65% 30.07 in 10.0 mi WSW 3.5 mph - N/A   Clear
6:55 AM 70.0 °F - 57.6 °F 65% 30.07 in 10.0 mi Calm Calm - N/A   Clear
7:15 AM 70.0 °F - 57.4 °F 64% 30.06 in 10.0 mi Calm Calm - N/A Thunderstorm Thunderstorm
7:35 AM 70.0 °F - 59.0 °F 68% 30.07 in 10.0 mi Calm Calm - N/A   Scattered Clouds
7:55 AM 71.2 °F - 59.2 °F 66% 30.09 in 10.0 mi NW 4.6 mph - N/A Thunderstorm Mostly Cloudy
8:15 AM 72.0 °F - 62.2 °F 71% 30.16 in 2.5 mi ENE 27.6 mph 44.9 mph N/A Rain Heavy Rain
8:35 AM 67.3 °F - 63.1 °F 87% 30.13 in 5.0 mi ESE 18.4 mph 25.3 mph N/A Rain , Thunderstorm Light Thunderstorms and Rain
8:55 AM 70.0 °F - 59.9 °F 70% 30.14 in 10.0 mi SE 15.0 mph 23.0 mph N/A Thunderstorm Scattered Clouds
9:15 AM 67.5 °F - 61.0 °F 80% 30.13 in 10.0 mi SE 13.8 mph - N/A Thunderstorm Clear
9:35 AM 67.5 °F - 61.7 °F 82% 30.13 in 10.0 mi SSE 12.7 mph - N/A   Clear
9:55 AM 70.0 °F - 61.3 °F 74% 30.12 in 10.0 mi SSE 17.3 mph - N/A   Clear
10:15 AM 70.0 °F - 59.9 °F 70% 30.11 in 10.0 mi SSE 12.7 mph - N/A   Clear
10:35 AM 72.5 °F - 61.5 °F 68% 30.10 in 10.0 mi SSE 12.7 mph - N/A   Clear
10:55 AM 75.2 °F - 62.8 °F 65% 30.09 in 10.0 mi South 11.5 mph - N/A   Clear
11:15 AM 77.5 °F - 61.3 °F 57% 30.09 in 10.0 mi South 13.8 mph - N/A   Clear
11:35 AM 80.4 °F 81.2 °F 60.3 °F 50% 30.09 in 10.0 mi South 9.2 mph - N/A   Clear
11:55 AM 83.7 °F 83.4 °F 58.8 °F 43% 30.08 in 10.0 mi SSW 15.0 mph 18.4 mph N/A   Clear
12:15 PM 84.7 °F 84.4 °F 59.2 °F 42% 30.08 in 10.0 mi South 17.3 mph - N/A   Clear
12:35 PM 87.8 °F 87.1 °F 59.0 °F 38% 30.07 in 10.0 mi South 15.0 mph - N/A   Clear
12:55 PM 87.8 °F 86.7 °F 57.6 °F 36% 30.07 in 10.0 mi SSE 13.8 mph - N/A   Clear
1:15 PM 90.1 °F 88.6 °F 56.3 °F 32% 30.07 in 10.0 mi SE 10.4 mph - N/A   Clear
1:35 PM 90.1 °F 90.2 °F 61.2 °F 38% 30.06 in 10.0 mi ESE 12.7 mph - N/A   Clear
1:55 PM 90.1 °F 89.9 °F 60.6 °F 37% 30.06 in 10.0 mi SSE 11.5 mph 18.4 mph N/A   Clear
2:15 PM 90.1 °F 89.9 °F 60.4 °F 37% 30.05 in 10.0 mi SE 11.5 mph - N/A   Clear
2:35 PM 90.1 °F 89.6 °F 60.1 °F 36% 30.04 in 10.0 mi East 13.8 mph 17.3 mph N/A   Clear
2:55 PM 90.1 °F 89.6 °F 59.7 °F 36% 30.04 in 10.0 mi ESE 8.1 mph - N/A   Clear
3:15 PM 90.1 °F 89.6 °F 60.1 °F 36% 30.02 in 10.0 mi SE 9.2 mph - N/A   Clear
3:35 PM 90.1 °F 89.1 °F 58.5 °F 34% 30.02 in 10.0 mi ESE 9.2 mph - N/A   Clear
3:55 PM 90.1 °F 88.6 °F 56.5 °F 32% 30.01 in 10.0 mi East 12.7 mph - N/A   Clear
4:15 PM 90.1 °F 88.3 °F 55.4 °F 31% 30.00 in 10.0 mi East 9.2 mph - N/A   Clear
4:35 PM 90.1 °F 88.1 °F 54.5 °F 30% 30.00 in 10.0 mi East 12.7 mph - N/A   Clear
4:55 PM 91.2 °F 89.1 °F 54.9 °F 29% 29.99 in 10.0 mi ESE 11.5 mph - N/A   Clear
5:15 PM 91.2 °F 89.4 °F 55.4 °F 30% 29.99 in 10.0 mi East 10.4 mph - N/A   Clear
5:35 PM 94.1 °F 93.1 °F 58.1 °F 30% 29.97 in 10.0 mi ESE 11.5 mph - N/A   Clear
5:55 PM 90.9 °F 88.9 °F 55.4 °F 30% 29.97 in 10.0 mi ESE 12.7 mph - N/A   Clear
6:15 PM 91.4 °F 89.4 °F 55.0 °F 29% 29.96 in 10.0 mi East 12.7 mph - N/A   Clear
6:35 PM 91.6 °F 89.8 °F 55.6 °F 30% 29.96 in 10.0 mi East 13.8 mph - N/A   Clear
6:55 PM 90.1 °F 88.8 °F 57.0 °F 33% 29.95 in 10.0 mi East 10.4 mph - N/A   Clear
7:15 PM 90.1 °F 89.1 °F 58.1 °F 34% 29.95 in 10.0 mi East 11.5 mph - N/A   Clear
7:35 PM 87.8 °F 86.7 °F 57.9 °F 36% 29.96 in 10.0 mi East 9.2 mph - N/A   Clear
7:55 PM 84.7 °F 83.9 °F 57.4 °F 39% 29.96 in 10.0 mi East 9.2 mph - N/A   Clear
8:15 PM 83.5 °F 82.9 °F 57.4 °F 41% 29.96 in 10.0 mi East 9.2 mph - N/A   Clear
8:35 PM 82.6 °F 82.3 °F 58.1 °F 43% 29.97 in 10.0 mi East 10.4 mph - N/A   Clear
8:55 PM 81.5 °F 81.7 °F 59.0 °F 46% 29.97 in 10.0 mi East 6.9 mph - N/A   Clear
9:15 PM 80.2 °F 80.8 °F 59.0 °F 48% 29.96 in 10.0 mi ESE 8.1 mph - N/A   Clear
9:35 PM 79.7 °F - 62.4 °F 55% 29.97 in 10.0 mi SE 6.9 mph - N/A   Clear
9:55 PM 80.1 °F 80.9 °F 60.1 °F 50% 29.99 in 10.0 mi ESE 4.6 mph - N/A   Clear
10:15 PM 80.1 °F 80.9 °F 59.9 °F 50% 30.00 in 10.0 mi ESE 3.5 mph - N/A   Clear
10:35 PM 77.5 °F - 61.3 °F 57% 30.02 in 10.0 mi East 6.9 mph - N/A Thunderstorm Clear
10:55 PM 80.1 °F 80.7 °F 58.8 °F 48% 30.02 in 10.0 mi ESE 8.1 mph - N/A   Clear
11:15 PM 80.1 °F 80.5 °F 57.7 °F 46% 30.04 in 10.0 mi East 6.9 mph - N/A   Clear
11:35 PM 77.5 °F - 60.1 °F 55% 30.03 in 10.0 mi South 5.8 mph - N/A Rain , Thunderstorm Light Thunderstorms and Rain
11:55 PM 77.5 °F - 59.0 °F 53% 30.09 in 10.0 mi WNW 12.7 mph - N/A Thunderstorm Mostly Cloudy